Temp
13 13 13 13 13 13 13 14 14 14 14 15 15 15 16 16 17 18 18 18 17 18 18 18 18 19 20 19 19 19 20 19 20 19 21 19 21 20 19 17 17 18 18 17 18
12 12 12 13 12 13 13 13 13 14 14 15 15 15 15 15 16 18 17 17 18 18 18 18 18 19 19 19 18 19 18 19 20 20 20 20 19 20 19 18 17 18 19 19 18
11 11 12 12 12 12 12 12 13 13 14 14 15 15 15 15 15 17 17 18 18 18 17 17 17 17 18 18 18 16 19 18 19 19 18 18 19 19 20 19 20 19 20 19 17
11 11 11 12 12 12 12 12 12 13 13 13 14 14 14 14 15 17 17 17 16 17 17 17 17 17 17 18 16 17 17 17 18 18 17 18 18 19 19 21 21 22 21 19 18
11 11 11 11 12 12 12 12 12 12 12 13 13 13 13 12 14 16 16 16 16 16 16 16 16 16 17 16 16 17 17 17 17 17 17 17 17 18 19 21 21 21 21 21 20
10 11 11 11 11 11 12 12 12 12 12 12 12 13 12 9 16 17 17 16 16 16 16 16 16 16 15 15 16 16 16 16 15 16 17 18 19 16 19 20 20 21 21 21 20
10 10 10 11 11 11 12 11 11 12 12 12 12 12 11 14 15 16 16 16 16 16 16 16 16 16 15 15 15 16 16 17 17 17 17 16 17 16 18 18 18 18 19 19 20
9 10 9 10 10 11 11 11 11 11 12 11 11 11 12 14 14 15 14 15 15 16 15 15 15 15 15 15 15 16 15 16 17 16 17 17 19 19 17 16 17 18 18 18 18
9 9 9 9 9 10 10 11 11 11 12 12 11 10 11 13 14 14 15 15 15 15 15 14 14 14 14 15 15 13 16 15 16 16 17 17 16 18 17 16 16 16 16 16 16
7 7 7 8 8 9 10 10 11 11 10 10 9 9 12 13 13 14 13 14 14 15 14 14 13 14 13 15 15 15 14 13 15 16 15 16 16 17 16 15 16 16 16 17 15
6 6 7 7 8 8 10 10 10 9 8 10 9 9 12 12 13 14 13 13 13 14 15 13 14 14 15 15 16 15 14 15 16 15 15 16 16 16 16 15 15 16 16 16 17
5 5 5 6 7 8 8 7 4 4 3 9 10 8 11 10 9 14 11 12 13 13 13 13 13 14 14 14 13 14 14 14 14 15 14 15 15 16 17 17 17 17 17 17 19
5 5 6 6 7 6 6 5 4 4 3 6 6 7 9 9 8 10 10 11 12 12 13 13 14 12 12 13 12 12 13 13 13 14 15 14 16 18 17 16 15 16 17 16 17
4 5 5 5 6 5 5 5 5 5 6 7 8 9 9 9 10 11 11 11 11 11 11 12 14 13 13 12 13 13 13 13 13 13 14 14 14 16 17 17 17 17 16 16 14
4 4 4 5 5 5 5 5 6 6 7 9 10 10 10 10 11 12 11 10 10 11 11 12 11 11 12 13 14 13 14 13 13 13 12 14 13 16 16 17 17 14 8 8 11
4 4 4 4 5 5 5 6 6 5 5 9 10 10 11 10 11 11 11 11 11 10 10 10 10 12 12 12 13 13 13 12 12 12 12 13 13 16 15 10 11 9 7 6 9
3 3 4 4 4 4 5 6 4 4 8 8 9 9 9 9 10 10 10 10 11 10 10 10 10 11 11 12 11 12 12 11 11 11 12 14 13 15 10 7 7 7 5 5 5
3 3 3 3 3 4 5 4 2 6 6 8 8 9 9 9 9 9 9 9 10 9 9 10 10 10 10 11 11 10 12 11 10 12 13 12 13 15 7 7 6 5 5 4 4
2 2 3 3 3 3 4 1 4 5 7 6 8 8 9 9 9 10 9 8 9 9 9 8 9 10 10 11 11 10 10 12 10 11 10 12 11 7 8 8 7 6 6 5 3
2 2 2 2 2 3 2 3 4 4 5 6 5 7 7 8 8 9 9 10 9 9 9 6 6 9 10 10 11 11 11 9 7 8 10 12 11 11 6 6 7 7 6 5 4
2 2 2 2 1 1 2 2 3 4 5 5 5 5 6 6 7 7 8 9 10 9 9 9 6 7 9 9 8 8 8 7 7 7 8 9 9 5 5 6 6 7 6 5 4
1 0 1 1 1 1 2 2 3 3 4 4 3 4 4 4 4 5 6 8 8 8 7 8 6 7 8 10 9 7 5 8 6 7 7 7 7 6 6 7 6 7 7 5 4
0 0 0 1 1 1 1 2 3 3 3 3 3 3 4 4 3 4 5 7 7 7 7 7 6 6 7 8 7 7 7 7 5 4 7 7 7 5 5 5 5 6 6 5 4
-0 -1 -1 -0 -0 0 0 0 1 1 2 2 3 2 2 3 3 2 3 5 4 6 7 6 6 6 6 8 7 7 6 5 5 5 6 6 8 7 6 6 7 6 7 6 5
-1 -1 -2 -1 -1 -0 -1 -0 0 0 -0 0 1 1 2 1 2 2 3 2 3 4 6 5 4 5 6 6 7 7 7 7 6 7 6 8 8 9 9 9 9 8 6 6 5
-2 -2 -2 -2 -1 -2 -2 -1 -0 0 1 -0 -0 1 1 0 0 -1 -1 1 2 3 4 4 4 6 5 6 6 5 6 6 7 7 7 7 7 9 9 8 8 8 7 7 6
-2 -2 -1 -3 -3 -3 -2 -0 -0 -0 0 1 1 0 -0 0 1 -0 -1 -0 0 -0 1 2 3 4 4 6 5 4 5 6 6 7 7 7 8 8 8 7 7 7 6 7 6
Height
1534 1535 1535 1534 1534 1532 1530 1529 1528 1526 1523 1520 1517 1515 1511 1508 1505 1502 1498 1498 1498 1498 1498 1498 1497 1495 1494 1495 1496 1496 1499 1499 1496 1498 1490 1490 1487 1486 1486 1487 1487 1486 1485 1486 1485
1532 1531 1531 1530 1530 1528 1526 1526 1525 1522 1520 1517 1515 1513 1509 1505 1503 1498 1497 1496 1497 1497 1497 1495 1494 1493 1491 1493 1495 1497 1497 1493 1488 1487 1487 1487 1488 1487 1487 1486 1486 1483 1483 1484 1484
1528 1528 1528 1527 1526 1524 1522 1522 1521 1519 1516 1513 1511 1509 1508 1505 1501 1497 1497 1496 1496 1495 1495 1494 1493 1493 1491 1490 1493 1494 1492 1490 1486 1485 1486 1487 1487 1486 1484 1484 1480 1479 1478 1480 1482
1525 1524 1524 1523 1522 1521 1520 1519 1517 1515 1513 1510 1507 1505 1505 1504 1506 1497 1495 1493 1491 1491 1492 1491 1491 1493 1490 1487 1488 1492 1488 1490 1488 1487 1488 1486 1485 1484 1483 1479 1479 1478 1478 1478 1479
1520 1520 1518 1519 1517 1517 1516 1515 1514 1511 1510 1507 1504 1502 1501 1501 1495 1492 1491 1490 1489 1488 1489 1490 1488 1490 1489 1488 1487 1486 1485 1486 1486 1487 1487 1486 1481 1482 1478 1472 1475 1476 1475 1475 1475
1516 1515 1514 1515 1514 1512 1512 1510 1510 1508 1506 1504 1501 1499 1498 1497 1488 1487 1487 1487 1488 1486 1485 1487 1487 1487 1487 1488 1487 1484 1483 1482 1482 1483 1481 1480 1475 1478 1464 1469 1469 1469 1469 1470 1470
1511 1511 1510 1509 1509 1508 1507 1505 1505 1504 1503 1501 1498 1496 1493 1483 1485 1482 1482 1481 1481 1483 1479 1481 1483 1485 1486 1486 1483 1483 1483 1478 1475 1475 1474 1473 1474 1471 1465 1467 1467 1467 1466 1466 1465
1507 1506 1506 1506 1505 1504 1502 1501 1499 1498 1498 1497 1496 1495 1486 1479 1480 1479 1477 1477 1477 1478 1478 1478 1479 1481 1482 1484 1484 1482 1482 1478 1471 1472 1471 1472 1467 1463 1466 1467 1466 1465 1463 1461 1460
1503 1502 1500 1501 1500 1500 1499 1497 1494 1492 1492 1491 1494 1493 1483 1477 1478 1478 1478 1477 1477 1475 1474 1475 1478 1479 1480 1481 1483 1485 1477 1479 1472 1470 1469 1470 1467 1463 1463 1464 1462 1460 1458 1457 1456
1500 1501 1498 1497 1497 1495 1496 1493 1488 1487 1486 1486 1488 1493 1480 1478 1477 1478 1477 1477 1477 1476 1473 1473 1476 1478 1481 1478 1476 1474 1480 1478 1473 1469 1469 1466 1462 1459 1460 1462 1459 1456 1454 1452 1449
1496 1497 1495 1493 1493 1492 1492 1490 1491 1485 1484 1486 1481 1481 1475 1475 1476 1474 1474 1475 1476 1477 1475 1473 1472 1469 1467 1469 1466 1471 1474 1470 1467 1469 1465 1457 1450 1453 1454 1455 1455 1451 1447 1445 1443
1491 1490 1494 1491 1491 1489 1489 1491 1494 1495 1485 1479 1473 1471 1470 1473 1471 1460 1472 1476 1475 1474 1474 1474 1468 1467 1467 1468 1470 1470 1469 1466 1464 1464 1464 1454 1436 1445 1446 1440 1440 1441 1439 1437 1436
1489 1486 1491 1488 1489 1489 1488 1490 1494 1493 1487 1476 1470 1466 1465 1467 1467 1457 1465 1471 1472 1470 1470 1467 1460 1464 1465 1466 1470 1468 1467 1468 1467 1461 1458 1453 1427 1426 1432 1435 1434 1434 1433 1432 1430
1484 1485 1487 1487 1489 1486 1487 1490 1489 1490 1486 1475 1472 1468 1466 1464 1467 1461 1457 1460 1471 1465 1466 1462 1459 1458 1461 1462 1463 1463 1461 1461 1464 1467 1461 1455 1437 1431 1430 1429 1431 1429 1427 1427 1428
1481 1484 1487 1484 1486 1486 1489 1489 1486 1488 1493 1473 1471 1470 1468 1466 1463 1457 1458 1462 1458 1466 1466 1454 1455 1457 1455 1450 1456 1452 1459 1459 1458 1461 1462 1453 1459 1416 1422 1420 1425 1430 1433 1431 1426
1479 1483 1487 1487 1485 1486 1488 1487 1490 1496 1496 1472 1470 1470 1469 1466 1464 1461 1459 1458 1459 1461 1459 1458 1460 1455 1449 1451 1453 1455 1458 1461 1460 1460 1458 1447 1451 1415 1427 1444 1436 1436 1436 1432 1426
1477 1482 1485 1485 1485 1485 1486 1489 1497 1500 1474 1473 1473 1472 1471 1470 1467 1463 1461 1461 1461 1461 1458 1453 1449 1450 1453 1452 1451 1456 1459 1463 1460 1459 1447 1435 1443 1420 1439 1448 1447 1441 1437 1435 1430
1475 1478 1481 1484 1487 1485 1487 1490 1501 1480 1477 1473 1472 1470 1471 1473 1471 1467 1465 1465 1462 1462 1459 1454 1449 1446 1447 1447 1446 1448 1450 1454 1452 1440 1435 1438 1431 1418 1445 1448 1447 1444 1439 1434 1431
1473 1475 1479 1481 1485 1486 1487 1498 1484 1478 1474 1475 1471 1468 1466 1470 1470 1465 1470 1470 1466 1463 1461 1460 1451 1449 1448 1444 1445 1449 1450 1446 1453 1443 1446 1431 1434 1445 1443 1444 1443 1441 1436 1431 1432
1471 1474 1476 1480 1487 1484 1486 1483 1482 1479 1478 1480 1480 1474 1472 1469 1470 1468 1463 1464 1466 1464 1462 1469 1466 1453 1450 1448 1441 1442 1443 1452 1460 1451 1436 1420 1425 1422 1446 1443 1441 1441 1439 1435 1433
1473 1473 1474 1477 1482 1488 1479 1480 1481 1480 1480 1482 1480 1477 1475 1476 1472 1472 1465 1459 1456 1459 1460 1460 1467 1462 1454 1451 1450 1449 1445 1452 1452 1452 1437 1430 1432 1448 1446 1444 1443 1440 1437 1433 1433
1469 1473 1475 1476 1482 1481 1478 1477 1478 1481 1482 1481 1482 1480 1478 1478 1475 1473 1469 1462 1459 1460 1461 1460 1458 1455 1449 1446 1447 1452 1456 1452 1452 1447 1441 1441 1436 1440 1439 1436 1436 1434 1430 1432 1435
1467 1471 1474 1475 1474 1479 1478 1475 1475 1477 1481 1482 1479 1478 1474 1474 1478 1470 1466 1463 1462 1459 1456 1455 1456 1452 1444 1444 1445 1442 1444 1445 1452 1450 1432 1436 1435 1438 1438 1439 1436 1435 1434 1431 1430
1465 1466 1473 1471 1470 1473 1478 1476 1474 1474 1478 1478 1475 1476 1477 1472 1471 1469 1466 1461 1458 1455 1451 1450 1450 1447 1442 1435 1439 1443 1442 1446 1449 1449 1443 1437 1429 1431 1434 1433 1431 1430 1429 1425 1429
1463 1464 1467 1472 1471 1472 1476 1478 1475 1475 1480 1478 1475 1476 1474 1471 1466 1463 1464 1462 1457 1451 1450 1450 1449 1445 1442 1440 1439 1439 1437 1435 1438 1432 1436 1424 1426 1419 1424 1425 1425 1424 1423 1422 1424
1460 1462 1468 1469 1469 1473 1476 1476 1473 1474 1476 1471 1474 1471 1471 1472 1472 1470 1472 1464 1456 1449 1445 1442 1439 1435 1436 1432 1434 1435 1431 1430 1428 1426 1426 1424 1422 1418 1421 1422 1422 1421 1421 1419 1419
1456 1459 1463 1469 1470 1474 1473 1470 1470 1473 1469 1469 1469 1469 1467 1466 1466 1463 1464 1463 1460 1458 1451 1443 1438 1436 1432 1427 1429 1432 1420 1420 1420 1421 1421 1419 1412 1417 1418 1419 1419 1417 1414 1413 1413
Wind_Speed
8 9 12 14 16 17 18 19 21 21 21 22 23 23 25 28 28 27 9 3 1 2 5 7 7 5 7 1 4 4 3 4 4 6 4 3 6 3 1 3 6 9 6 4 4
11 12 14 14 16 18 20 21 21 22 22 22 23 25 25 28 31 13 2 2 1 3 7 12 15 12 2 1 2 3 3 7 5 6 4 3 2 5 3 3 6 8 16 13 11
13 14 15 16 19 20 20 20 20 21 22 23 24 25 26 28 27 2 3 5 11 16 18 16 15 6 1 3 3 2 6 5 4 9 6 2 5 3 3 5 12 11 16 18 19
15 15 18 20 22 23 22 22 21 21 21 23 24 26 26 26 7 7 17 24 25 20 21 17 6 4 2 4 4 4 6 6 6 3 2 3 8 6 7 15 8 10 14 16 23
17 18 18 21 22 23 23 23 22 21 23 24 26 27 28 15 23 14 14 11 4 3 5 4 4 3 3 2 2 6 6 7 6 10 14 15 13 9 17 27 18 18 20 19 23
20 20 19 22 23 22 23 24 25 25 25 24 27 26 24 12 13 14 20 22 21 23 22 15 6 5 4 4 4 1 6 12 10 11 16 15 19 10 23 24 22 20 21 21 25
21 20 20 23 24 25 26 26 27 27 26 23 23 24 28 37 19 15 20 24 23 19 20 15 16 10 3 2 4 3 9 13 13 9 6 5 7 9 14 9 11 17 23 25 28
22 22 22 24 26 27 26 26 27 27 26 22 21 20 20 26 23 17 10 5 5 7 9 11 13 13 6 5 3 5 3 7 1 2 2 5 13 11 4 5 13 15 19 24 28
21 21 20 22 23 24 25 25 25 24 23 20 17 12 16 11 8 4 7 6 6 2 2 3 12 6 6 5 6 1 10 10 8 3 3 4 5 8 19 18 18 17 17 19 24
16 16 16 17 20 22 23 23 22 21 16 10 9 6 13 7 6 7 9 5 6 8 3 7 5 3 1 7 11 7 7 5 10 3 4 16 21 20 22 17 20 19 19 21 22
12 12 14 15 18 19 18 14 7 3 2 6 9 12 23 16 16 20 9 12 15 5 4 3 5 11 19 16 18 10 10 16 13 10 16 20 23 17 20 16 18 24 23 23 23
7 8 11 12 13 11 9 5 7 8 11 20 24 30 35 32 18 42 22 11 9 11 1 3 14 11 8 11 13 15 17 19 15 11 9 14 29 23 21 27 26 25 23 23 23
5 6 7 7 7 5 6 8 7 9 5 13 12 11 11 8 11 29 19 12 8 11 16 20 8 3 9 9 8 10 14 11 15 13 14 17 26 15 4 10 14 15 21 20 24
5 5 4 6 2 5 4 3 5 6 4 5 4 3 2 2 6 11 1 11 3 11 11 15 15 16 10 8 9 14 10 12 13 8 11 1 13 17 14 11 6 13 14 16 17
6 4 2 4 3 3 2 3 2 2 4 3 1 3 4 3 8 3 1 11 7 5 4 7 5 9 17 21 15 18 8 10 8 9 9 15 8 4 5 17 12 12 18 18 13
5 3 2 2 4 3 2 2 3 4 7 3 4 3 9 2 4 7 1 4 2 5 7 7 6 2 5 4 5 4 1 1 2 4 10 12 11 15 3 4 7 15 20 22 22
7 6 5 2 2 3 4 4 3 3 3 3 4 7 6 4 6 5 4 3 3 3 2 2 4 4 5 11 4 7 5 5 6 6 11 7 12 17 4 8 8 13 19 20 19
11 8 6 5 3 3 5 3 4 3 3 2 3 8 5 5 2 6 7 5 3 2 2 4 5 3 2 6 4 8 13 8 10 9 8 4 9 5 10 11 12 11 12 16 18
9 7 6 4 4 4 2 1 6 4 1 4 9 12 12 3 3 4 2 3 3 4 2 4 4 3 2 2 3 3 5 7 8 12 7 8 4 5 3 10 14 18 17 16 13
8 5 5 6 6 9 3 6 4 2 3 5 5 3 10 8 6 5 5 4 3 1 3 3 6 5 5 4 2 4 4 3 1 5 9 8 7 3 8 13 15 13 14 13 9
6 3 4 8 12 7 4 5 4 5 5 3 6 6 8 11 9 10 5 4 5 4 2 4 5 9 7 4 6 4 1 3 1 3 3 3 3 3 6 1 5 9 10 5 4
8 2 6 12 5 3 4 5 4 4 5 3 2 3 5 8 11 9 14 13 7 2 6 5 4 9 15 9 7 9 10 14 5 5 4 3 4 11 11 8 6 13 12 4 2
9 5 7 12 4 4 3 3 6 5 7 4 5 7 5 7 8 14 16 26 32 20 7 6 6 9 15 6 3 8 3 6 1 2 11 6 2 10 9 10 13 15 14 8 6
5 2 4 6 3 3 1 4 5 1 5 6 5 2 6 12 13 6 9 8 14 8 14 4 6 12 11 10 2 8 6 9 7 3 7 9 11 7 12 14 14 17 22 10 13
5 2 3 3 1 4 2 4 5 2 2 3 4 4 9 6 13 13 13 18 22 26 15 4 13 16 17 18 18 18 17 14 12 15 10 17 13 14 9 11 15 20 19 16 17
8 5 4 1 3 3 2 3 6 5 4 7 8 12 8 10 10 13 11 10 11 8 6 5 12 15 18 18 18 19 19 20 19 17 16 18 19 18 16 12 11 14 9 16 18
9 8 4 2 4 3 3 4 3 2 8 17 12 12 12 13 13 15 18 24 16 8 7 4 4 5 17 15 15 12 21 21 18 14 15 16 19 6 7 6 7 5 5 6 9
Wind_Direction
295 306 316 322 321 322 324 324 323 326 327 329 329 329 330 326 327 332 316 261 233 271 306 330 324 326 344 238 213 185 208 209 217 187 238 299 356 5 68 154 198 207 224 218 223
289 298 306 312 314 319 322 321 321 324 325 326 327 327 330 328 329 323 177 147 154 301 316 329 334 329 41 203 216 215 230 220 214 198 238 274 302 318 207 185 235 234 230 233 216
285 293 301 306 310 313 314 314 318 322 322 323 323 325 327 328 331 224 222 286 295 296 303 315 321 321 171 167 186 164 249 235 245 231 273 307 301 302 232 227 231 228 240 223 209
284 291 300 306 311 312 312 313 318 320 319 320 321 321 324 324 310 305 292 291 288 285 282 282 280 296 217 179 156 258 238 248 296 290 311 281 300 280 253 264 270 282 265 231 213
280 286 292 298 303 303 305 309 314 317 316 317 317 318 321 306 286 303 287 288 278 263 329 289 268 237 237 235 260 228 264 273 269 287 290 287 257 251 269 267 261 272 276 255 230
278 285 292 296 298 298 301 305 311 311 311 313 312 313 313 285 297 296 288 288 278 277 278 269 231 201 257 240 214 221 280 288 294 276 269 259 273 192 255 267 265 262 256 249 237
273 281 288 292 293 297 298 303 310 308 307 309 306 307 299 281 288 281 288 284 287 277 272 261 232 223 173 250 249 286 300 299 286 268 238 180 259 229 268 270 288 279 271 254 240
271 275 285 289 292 294 297 304 307 308 306 306 299 298 282 297 294 295 279 274 293 275 282 269 222 221 210 254 329 281 255 283 100 161 288 202 269 270 92 354 306 295 283 259 249
271 279 287 290 293 298 305 309 310 309 306 304 293 280 268 289 321 299 304 304 333 36 263 252 202 201 160 222 271 224 265 246 288 275 216 199 275 277 286 305 299 293 289 271 257
274 290 296 302 306 308 310 311 308 303 299 301 265 272 266 305 309 289 301 281 326 309 194 160 165 177 146 196 241 231 233 231 257 184 277 293 281 279 279 286 287 289 289 280 260
273 290 296 302 308 314 317 332 312 324 347 255 242 248 272 276 289 281 278 289 312 283 246 201 202 202 213 217 240 264 263 267 265 278 298 285 283 282 286 280 273 276 272 269 264
266 291 306 314 320 331 339 33 26 319 305 289 271 259 261 271 279 265 280 269 264 257 231 236 242 236 222 224 233 242 259 267 282 268 280 295 289 290 271 265 260 258 264 256 253
274 288 308 323 343 13 56 57 358 336 267 294 272 261 275 264 247 274 256 256 244 250 239 248 231 150 212 226 225 233 239 256 264 292 276 295 288 294 324 250 263 265 266 265 252
238 282 324 350 120 80 107 44 349 328 310 284 297 330 331 216 262 302 289 188 250 257 221 252 248 234 225 217 202 254 216 241 264 273 277 241 288 291 286 287 299 288 272 283 278
235 263 311 34 56 81 76 32 18 21 335 27 334 4 338 199 298 39 182 176 202 219 190 244 188 213 232 241 224 265 233 239 240 247 278 251 262 307 248 300 318 15 5 345 341
224 244 284 18 48 54 68 78 102 53 247 4 18 4 1 318 303 321 200 185 223 217 239 254 305 251 200 198 168 126 281 271 228 232 258 245 226 288 299 353 327 346 356 351 345
206 206 225 229 140 96 107 138 55 170 337 39 20 347 326 326 326 17 343 299 255 290 235 302 227 241 226 248 211 206 205 265 250 211 250 207 219 255 33 47 17 358 359 359 356
204 211 223 250 261 167 148 69 182 210 265 264 339 326 333 358 352 350 6 343 350 308 276 273 287 190 142 225 210 204 213 213 243 243 263 224 242 235 97 71 47 29 16 15 11
210 210 228 228 212 186 144 179 209 201 331 17 340 316 306 203 286 323 26 287 318 336 310 339 257 338 259 252 189 151 186 244 265 276 265 243 226 167 302 37 33 21 16 24 19
193 184 222 213 196 174 116 232 245 236 38 29 273 254 279 294 301 291 227 201 289 119 80 81 317 339 328 303 238 231 138 173 199 235 241 234 226 214 38 21 17 11 3 3 9
175 148 180 186 177 179 215 208 294 290 254 233 250 277 289 303 294 287 288 306 242 238 102 212 173 281 302 333 1 356 18 73 263 224 278 272 130 137 126 111 343 331 300 309 322
166 124 177 167 179 205 229 185 215 259 281 257 351 262 265 281 287 288 272 256 322 30 307 265 222 257 259 259 207 226 278 280 233 210 211 266 252 180 209 219 248 299 277 227 253
150 167 178 186 199 211 235 268 234 250 244 212 240 221 226 259 271 256 268 269 267 264 247 193 216 258 270 236 203 233 225 225 343 329 242 238 209 207 238 265 261 267 279 223 196
150 152 200 207 160 151 272 246 235 282 245 229 260 259 275 263 254 268 297 305 324 257 224 236 250 247 250 262 337 275 231 202 231 249 276 257 279 232 234 251 263 249 256 240 217
148 157 168 176 214 247 306 322 307 285 353 7 327 240 292 281 275 258 278 260 268 275 271 235 249 251 258 264 271 268 266 265 239 238 238 273 264 270 255 260 259 261 259 250 227
144 145 157 160 141 127 226 213 250 274 247 266 242 265 252 264 253 296 314 325 294 340 254 207 243 255 256 253 256 258 256 251 249 251 256 263 269 270 255 262 270 278 263 250 234
179 164 159 156 141 156 214 220 260 8 255 256 268 282 277 258 279 250 255 262 253 266 277 273 199 222 251 256 262 253 237 234 238 238 238 250 254 246 226 240 256 276 285 301 311